When you browse on this site, cookies collect data to enhance your experience and personalize the content and advertising you see.
Visit our Privacy Policy to learn more. By continuing to use the site, you agree to this use of cookies and data.
  • In Portugal
  • List of Countries
  • For 7 days
  • Water Temperature
  • Satellite Maps
  • Weather Map
  • Weather Widgets
  • user-avatar
    Login

    Hourly Weather Gintro

    Today, 24 February, Sunday

    Time Temperature Precipitation Wind Pressure Humidity
    00:00 -2°C° 0 mm 3 mps 777 mmHg 48%
    01:00 -2°C° 0 mm 3 mps 776 mmHg 48%
    02:00 -2°C° 0.1 mm 3 mps 776 mmHg 54%
    03:00 -2°C° 0.1 mm 3 mps 776 mmHg 61%
    04:00 -2°C° 0.1 mm 3 mps 776 mmHg 67%
    05:00 -2°C° 0 mm 3 mps 775 mmHg 66%
    06:00 -2°C° 0 mm 3 mps 775 mmHg 66%
    07:00 -2°C° 0 mm 3 mps 775 mmHg 65%
    08:00 0°C° 0 mm 3 mps 775 mmHg 62%
    09:00 +1°C° 0 mm 3 mps 775 mmHg 59%
    10:00 +2°C° 0 mm 3 mps 774 mmHg 55%
    11:00 +3°C° 0 mm 3 mps 774 mmHg 55%
    12:00 +4°C° 0 mm 3 mps 774 mmHg 55%
    13:00 +7°C° 0 mm 3 mps 774 mmHg 55%
    14:00 +5°C° 0 mm 3 mps 774 mmHg 58%
    15:00 +6°C° 0 mm 2 mps 773 mmHg 62%
    16:00 +5°C° 0 mm 2 mps 773 mmHg 66%
    17:00 +4°C° 0 mm 2 mps 773 mmHg 67%
    18:00 +2°C° 0 mm 3 mps 773 mmHg 69%
    19:00 +1°C° 0 mm 3 mps 773 mmHg 70%
    20:00 +1°C° 0 mm 3 mps 773 mmHg 72%
    21:00 +1°C° 0 mm 3 mps 773 mmHg 75%
    22:00 0°C° 0 mm 3 mps 773 mmHg 77%
    23:00 0°C° 0 mm 3 mps 773 mmHg 81%

    Tomorrow, 25 February, Monday

    Time Temperature Precipitation Wind Pressure Humidity
    00:00 0°C° 0 mm 3 mps 773 mmHg 86%
    01:00 0°C° 0 mm 3 mps 773 mmHg 91%
    02:00 0°C° 0 mm 3 mps 773 mmHg 93%
    03:00 0°C° 0 mm 3 mps 772 mmHg 94%
    04:00 0°C° 0 mm 3 mps 772 mmHg 96%
    05:00 +1°C° 0 mm 3 mps 772 mmHg 96%
    06:00 +2°C° 0 mm 2 mps 772 mmHg 96%
    07:00 +2°C° 0 mm 2 mps 772 mmHg 96%
    08:00 +2°C° 0 mm 3 mps 772 mmHg 94%
    09:00 +3°C° 0 mm 3 mps 773 mmHg 91%
    10:00 +4°C° 0 mm 3 mps 773 mmHg 88%
    11:00 +4°C° 0 mm 3 mps 773 mmHg 86%
    12:00 +5°C° 0 mm 3 mps 772 mmHg 84%
    13:00 +7°C° 0 mm 3 mps 772 mmHg 82%
    14:00 +5°C° 0 mm 3 mps 772 mmHg 82%
    15:00 +5°C° 0 mm 3 mps 772 mmHg 83%
    16:00 +5°C° 0 mm 3 mps 772 mmHg 83%
    17:00 +5°C° 0 mm 2 mps 772 mmHg 85%
    18:00 +4°C° 0 mm 2 mps 772 mmHg 88%
    19:00 +3°C° 0 mm 2 mps 772 mmHg 90%
    20:00 +2°C° 0 mm 2 mps 771 mmHg 90%
    21:00 +2°C° 0 mm 2 mps 771 mmHg 90%
    22:00 +1°C° 0 mm 2 mps 771 mmHg 91%
    23:00 +1°C° 0 mm 2 mps 771 mmHg 91%

    Day after tomorrow, 26 February, Tuesday

    Time Temperature Precipitation Wind Pressure Humidity
    00:00 +1°C° 0 mm 2 mps 770 mmHg 92%
    01:00 +1°C° 0 mm 2 mps 770 mmHg 92%
    02:00 +2°C° 0 mm 2 mps 770 mmHg 93%
    03:00 +2°C° 0 mm 2 mps 769 mmHg 94%
    04:00 +2°C° 0 mm 2 mps 769 mmHg 96%
    05:00 +2°C° 0 mm 3 mps 768 mmHg 95%
    06:00 +2°C° 0 mm 3 mps 768 mmHg 95%
    07:00 +3°C° 0 mm 3 mps 768 mmHg 95%
    08:00 +3°C° 0 mm 3 mps 768 mmHg 92%
    09:00 +4°C° 0 mm 4 mps 768 mmHg 88%
    10:00 +4°C° 0 mm 4 mps 768 mmHg 85%
    11:00 +5°C° 0 mm 4 mps 768 mmHg 78%
    12:00 +6°C° 0 mm 5 mps 768 mmHg 72%
    13:00 +7°C° 0 mm 5 mps 768 mmHg 66%
    14:00 +6°C° 0 mm 5 mps 768 mmHg 68%
    15:00 +6°C° 0 mm 5 mps 769 mmHg 71%
    16:00 +6°C° 0 mm 4 mps 769 mmHg 73%
    17:00 +5°C° 0 mm 4 mps 769 mmHg 78%
    18:00 +3°C° 0 mm 3 mps 769 mmHg 84%
    19:00 +2°C° 0 mm 3 mps 770 mmHg 89%
    20:00 +3°C° 0 mm 2 mps 770 mmHg 89%
    21:00 +2°C° 0 mm 2 mps 770 mmHg 90%
    22:00 +2°C° 0 mm 2 mps 770 mmHg 90%
    23:00 +2°C° 0 mm 2 mps 770 mmHg 89%

    27 February, Wednesday

    Time Temperature Precipitation Wind Pressure Humidity
    00:00 +3°C° 0 mm 1 mps 770 mmHg 88%
    01:00 +3°C° 0 mm 1 mps 770 mmHg 88%
    02:00 +3°C° 0 mm 1 mps 769 mmHg 87%
    03:00 +2°C° 0 mm 2 mps 769 mmHg 86%
    04:00 +2°C° 0 mm 2 mps 769 mmHg 85%
    05:00 +2°C° 0 mm 2 mps 768 mmHg 87%
    06:00 +1°C° 0 mm 3 mps 768 mmHg 89%
    07:00 +1°C° 0 mm 3 mps 768 mmHg 90%
    08:00 +2°C° 0 mm 3 mps 767 mmHg 86%
    09:00 +4°C° 0 mm 3 mps 767 mmHg 81%
    10:00 +5°C° 0 mm 3 mps 767 mmHg 77%
    11:00 +7°C° 0 mm 3 mps 766 mmHg 73%
    12:00 +8°C° 0 mm 4 mps 766 mmHg 69%
    13:00 +10°C° 0 mm 4 mps 765 mmHg 65%
    14:00 +10°C° 0 mm 3 mps 765 mmHg 66%
    15:00 +10°C° 0 mm 3 mps 764 mmHg 67%
    16:00 +10°C° 0 mm 3 mps 764 mmHg 68%
    17:00 +8°C° 0 mm 3 mps 763 mmHg 72%
    18:00 +7°C° 0 mm 3 mps 763 mmHg 76%
    19:00 +5°C° 0 mm 3 mps 763 mmHg 79%
    20:00 +4°C° 0 mm 3 mps 762 mmHg 81%
    21:00 +4°C° 0 mm 3 mps 762 mmHg 83%
    22:00 +3°C° 0 mm 3 mps 761 mmHg 84%
    23:00 +3°C° 0 mm 3 mps 761 mmHg 85%

    28 February, Thursday

    Time Temperature Precipitation Wind Pressure Humidity
    00:00 +3°C° 0 mm 3 mps 760 mmHg 86%
    01:00 +3°C° 0 mm 3 mps 760 mmHg 86%
    02:00 +3°C° 0 mm 3 mps 759 mmHg 87%
    03:00 +3°C° 0 mm 4 mps 759 mmHg 87%
    04:00 +3°C° 0 mm 4 mps 758 mmHg 88%
    05:00 +3°C° 0 mm 4 mps 757 mmHg 87%
    06:00 +3°C° 0 mm 4 mps 757 mmHg 87%
    07:00 +3°C° 0 mm 4 mps 756 mmHg 87%
    08:00 +3°C° 0 mm 5 mps 756 mmHg 80%
    09:00 +5°C° 0 mm 6 mps 756 mmHg 73%
    10:00 +8°C° 0 mm 7 mps 756 mmHg 67%
    11:00 +8°C° 0 mm 7 mps 755 mmHg 67%
    12:00 +8°C° 0 mm 7 mps 755 mmHg 67%
    13:00 +9°C° 0 mm 7 mps 755 mmHg 67%
    14:00 +8°C° 0 mm 7 mps 756 mmHg 68%
    15:00 +7°C° 0 mm 6 mps 756 mmHg 70%
    16:00 +7°C° 0 mm 6 mps 756 mmHg 72%
    17:00 +6°C° 0 mm 5 mps 756 mmHg 76%
    18:00 +4°C° 0 mm 4 mps 757 mmHg 80%
    19:00 +3°C° 0 mm 3 mps 757 mmHg 84%
    20:00 +3°C° 0 mm 3 mps 758 mmHg 86%
    21:00 +3°C° 0 mm 3 mps 758 mmHg 88%
    22:00 +2°C° 0 mm 3 mps 758 mmHg 90%
    23:00 +2°C° 0 mm 3 mps 758 mmHg 90%

    1 March, Friday

    Time Temperature Precipitation Wind Pressure Humidity
    00:00 +2°C° 0 mm 3 mps 758 mmHg 90%
    01:00 +1°C° 0 mm 3 mps 758 mmHg 90%
    02:00 +1°C° 0 mm 3 mps 759 mmHg 87%
    03:00 +1°C° 0 mm 3 mps 759 mmHg 85%
    04:00 +1°C° 0 mm 3 mps 759 mmHg 83%
    05:00 0°C° 0 mm 3 mps 759 mmHg 84%
    06:00 0°C° 0 mm 3 mps 760 mmHg 85%
    07:00 0°C° 0 mm 3 mps 760 mmHg 86%
    08:00 0°C° 0 mm 4 mps 760 mmHg 79%
    09:00 +3°C° 0 mm 4 mps 761 mmHg 72%
    10:00 +3°C° 0 mm 5 mps 761 mmHg 65%
    11:00 +3°C° 0 mm 5 mps 762 mmHg 62%
    12:00 +3°C° 0 mm 5 mps 762 mmHg 59%
    13:00 +3°C° 0 mm 5 mps 762 mmHg 55%
    14:00 +3°C° 0 mm 5 mps 762 mmHg 58%
    15:00 +2°C° 0 mm 5 mps 763 mmHg 60%
    16:00 +2°C° 0 mm 5 mps 763 mmHg 62%
    17:00 +1°C° 0 mm 4 mps 763 mmHg 67%
    18:00 0°C° 0 mm 4 mps 764 mmHg 73%
    19:00 0°C° 0 mm 3 mps 764 mmHg 78%
    20:00 0°C° 0 mm 3 mps 764 mmHg 80%
    21:00 -1°C° 0 mm 3 mps 765 mmHg 81%
    22:00 -1°C° 0 mm 3 mps 765 mmHg 82%
    23:00 -1°C° 0 mm 2 mps 765 mmHg 82%
    Show more